EHI
0 0 0 0 0 0 0 0 0 0 0 0 0 0 0 0 0 0 0 0 0 0 0 0 0 0 0 0 0 0 0 0 0 0 0 0 0 0 0 0 0 0 0
0 0 0 0 0 0 0 0 0 0 0 0 0 0 0 0 0 0 0 0 0 0 0 0 0 0 0 0 0 0 0 0 0 0 0 0 0 0 0 0 0 0 0
0 0 0 0 0 0 0 0 0 0 0 0 0 0 0 0 0 0 0 0 0 0 0 0 0 0 0 0 0 0 0 0 0 0 0 0 0 0 0 0 0 0 0
0 0 0 0 0 0 0 0 0 0 0 0 0 0 0 0 0 0 0 0 0 0 0 0 0 0 0 0 0 0 0 0 0 0 0 0 0 0 0 0 0 0 0
0 0 0 0 0 0 0 0 0 0 0 0 0 0 0 0 0 0 0 0 0 0 0 0 0 0 0 0 0 0 0 0 0 0 0 0 0 0 0 0 0 0 0
0 0 0 0 0 0 0 0 0 0 0 0 0 0 0 0 0 0 0 0 0 0 0 0 0 0 0 0 0 0 0 0 0 0 0 0 0 0 0 0 0 0 0
0 0 0 0 0 0 0 0 0 0 0 0 0 0 0 0 0 0 0 0 0 0 0 0 0 0 0 0 0 0 0 0 0 0 0 0 0 0 0 0 0 0 0
0 0 0 0 0 0 0 0 0 0 0 0 0 0 0 0 0 0 0 0 0 0 0 0 0 0 0 0 0 0 0 0 0 0 0 0 0 0 0 0 0 0 0
0 0 0 0 0 0 0 0 0 0 0 0 0 0 0 0 0 0 0 0 0 0 0 0 0 0 0 0 0 0 0 0 0 0 0 0 0 0 0 0 0 0 0
0 0 0 0 0 0 0 0 0 0 0 0 0 0 0 0 0 0 0 0 0 0 0 0 0 0 0 0 0 0 0 0 0 0 0 0 0 0 0 0 0 0 0
0 0 0 0 0 0 0 0 0 0 0 0 0 0 0 0 0 0 0 0 0 0 0 0 0 0 0 0 0 0 0 0 0 0 0 0 0 0 0 0 0 0 0
0 0 0 0 0 0 0 1 1 1 0 0 0 0 0 0 0 0 0 0 0 0 0 0 0 0 0 0 0 0 0 0 0 0 0 0 0 0 0 0 0 0 0
0 0 0 0 0 0 0 1 2 1 0 0 0 0 0 0 0 0 0 0 0 0 0 0 0 0 0 0 0 0 0 0 0 0 0 0 0 0 0 0 0 0 0
0 0 0 0 0 0 0 1 1 1 0 0 0 0 0 0 0 0 0 0 0 0 0 0 0 0 0 0 0 0 0 0 0 0 0 0 0 0 0 0 0 0 0
0 0 0 0 0 0 0 0 0 0 0 0 0 0 0 0 0 0 0 0 0 0 0 0 0 0 0 0 0 0 0 0 0 0 0 0 0 0 0 0 0 0 0
0 0 0 0 0 0 0 0 0 0 0 0 0 0 0 0 0 0 0 0 0 0 0 0 0 0 0 0 0 0 0 0 0 0 0 0 0 0 0 0 0 0 0
0 0 0 0 0 0 0 0 0 0 0 0 0 0 0 0 0 0 0 0 0 0 0 0 0 0 0 0 0 0 0 0 0 0 0 0 0 0 0 0 0 0 0
0 0 0 0 0 0 0 0 0 0 0 0 0 0 0 0 0 0 0 0 0 0 0 0 0 0 0 0 0 0 0 0 0 0 0 0 0 0 0 0 0 0 0
0 0 0 0 0 0 0 0 0 0 0 0 0 0 0 0 0 0 0 0 0 0 0 0 0 0 0 0 0 0 0 0 0 0 0 0 0 0 0 0 0 0 0
0 0 0 0 0 0 0 0 0 0 0 0 0 0 0 0 0 0 0 0 0 0 0 0 0 0 0 0 0 0 0 0 0 0 0 0 0 0 0 0 0 0 0
0 0 0 0 0 0 0 0 0 0 0 0 0 0 0 0 0 0 0 0 0 0 0 0 0 0 0 0 0 0 0 0 0 0 0 0 0 0 0 0 0 0 0
0 0 0 0 0 0 0 0 0 0 0 0 0 0 0 0 0 0 0 0 0 0 0 0 0 0 0 0 0 0 0 0 0 0 0 0 0 0 0 0 0 0 0
0 0 0 0 0 0 0 0 0 0 0 0 0 0 0 0 0 0 0 0 0 0 0 0 0 0 0 0 0 0 0 0 0 0 0 0 0 0 0 0 0 0 0
0 0 0 0 0 0 0 0 0 0 0 0 0 0 0 0 0 0 0 0 0 0 0 0 0 0 0 0 0 0 0 0 0 0 0 0 0 0 0 0 0 0 0
0 0 0 0 0 0 0 0 0 0 0 0 0 0 0 0 0 0 0 0 0 0 0 0 0 0 0 0 0 0 0 0 0 0 0 0 0 0 0 0 0 0 0
0 0 0 0 0 0 0 0 0 0 0 0 0 0 0 0 0 0 0 0 0 0 0 0 0 0 0 0 0 0 0 0 0 0 0 0 0 0 0 0 0 0 0
Wind_Speed
3 4 5 5 5 5 5 5 5 4 4 2 2 2 2 2 2 2 3 3 3 3 3 3 3 3 3 2 2 2 4 3 2 3 3 4 4 5 4 4 4 5 5
4 4 5 5 5 6 5 5 5 5 4 3 2 2 2 1 1 2 3 3 3 2 3 3 2 2 3 3 3 3 2 3 3 2 3 3 4 4 5 4 5 5 5
8 7 7 6 6 6 6 6 5 5 4 4 3 3 3 3 2 3 2 3 3 3 3 3 3 3 3 2 2 2 3 2 3 3 3 3 1 2 3 4 5 5 5
7 7 8 7 7 6 6 6 5 5 4 5 4 4 3 2 0 0 1 2 3 3 3 3 3 3 2 3 2 3 2 3 2 2 3 2 2 2 1 3 4 5 5
9 9 9 9 7 6 5 5 5 4 4 4 5 5 3 2 1 1 2 3 3 3 3 3 3 3 2 3 3 3 3 2 2 2 1 3 3 2 2 1 3 3 3
8 8 6 6 5 5 5 5 6 4 4 5 5 5 5 4 3 2 2 2 2 3 3 3 3 3 3 3 3 3 4 3 3 2 2 2 2 1 2 2 1 2 3
8 8 8 8 7 7 7 6 7 5 5 5 5 5 5 5 4 3 2 1 1 1 2 2 3 3 3 3 3 4 4 3 3 3 2 2 1 1 2 2 1 1 2
7 8 9 9 8 8 8 7 7 6 5 5 5 4 4 3 3 3 2 2 1 1 1 2 3 3 3 4 4 4 3 3 4 4 3 2 2 1 1 2 2 1 2
8 8 8 8 8 8 9 9 8 7 6 6 5 4 4 4 4 3 2 2 1 2 3 3 4 4 4 4 4 4 3 4 4 3 4 3 2 2 2 1 2 3 1
6 7 7 7 7 7 7 7 8 8 6 6 5 4 4 4 4 3 3 3 2 2 3 4 4 4 4 4 5 4 3 5 4 3 4 4 2 2 2 2 2 2 2
7 7 6 6 6 7 7 7 7 7 6 6 5 5 4 4 4 3 3 3 3 3 4 3 4 4 4 4 4 4 4 5 4 3 4 3 3 3 2 2 2 2 2
6 6 6 6 6 7 7 8 7 7 7 6 6 5 4 4 4 3 3 3 4 3 4 4 4 4 4 3 4 4 4 4 4 3 3 3 3 3 2 2 3 2 2
5 5 6 7 7 8 8 8 8 8 7 6 6 5 5 5 4 4 4 4 4 4 4 4 4 4 3 3 3 4 3 3 3 2 3 2 3 3 2 2 2 2 3
6 6 6 7 7 8 8 8 7 7 7 7 6 6 5 5 5 4 4 4 4 4 4 3 3 3 3 3 3 3 3 3 3 2 2 2 2 2 2 2 2 2 3
6 7 7 7 7 7 7 7 7 7 8 7 7 6 5 5 5 4 4 4 4 4 4 4 3 3 3 3 4 4 4 3 3 3 2 2 2 3 2 2 2 2 2
8 8 8 8 8 8 8 8 8 8 8 8 7 6 6 6 5 5 5 4 4 4 4 4 4 3 2 5 6 5 4 3 3 2 2 3 3 5 5 5 4 4 3
8 9 9 9 9 9 9 10 9 8 8 7 7 7 7 6 6 6 5 5 4 4 4 3 3 3 3 6 6 7 4 3 2 2 2 2 3 4 3 4 6 5 4
7 7 8 8 7 7 7 7 7 8 8 7 7 7 7 7 6 6 5 4 4 4 3 3 3 3 3 6 7 7 5 3 2 1 1 2 1 2 3 3 3 3 3
6 6 6 6 7 8 8 9 8 8 8 8 8 8 8 8 7 7 6 4 4 4 3 3 4 4 3 5 7 7 4 3 2 1 1 1 1 2 4 4 3 2 3
2 4 4 5 6 7 8 9 9 9 9 9 8 8 8 9 9 8 6 4 4 4 4 3 2 3 3 4 6 7 3 2 1 1 1 1 1 2 3 3 2 1 2
3 4 6 6 6 7 9 9 9 9 8 7 7 7 7 7 7 6 5 5 5 5 4 3 1 1 2 4 5 6 3 3 2 1 0 1 1 1 2 2 2 1 0
3 4 5 4 4 7 9 8 8 7 7 7 7 7 7 7 7 7 6 5 6 6 4 3 1 1 1 2 4 5 5 5 3 2 1 1 1 1 1 1 1 2 2
3 4 5 5 4 5 8 9 7 7 8 8 7 6 6 5 6 8 7 5 5 4 4 3 3 1 1 1 4 5 5 5 3 2 2 1 1 1 1 1 2 2 1
3 4 5 5 4 3 4 5 6 8 9 8 7 6 6 6 5 5 6 6 5 5 4 4 3 2 1 1 1 2 2 3 2 1 1 2 2 1 1 1 1 1 0
2 4 5 5 4 3 3 5 7 8 8 7 7 6 5 6 5 4 4 5 5 7 6 5 5 5 4 5 6 4 3 3 3 2 1 1 1 1 1 1 1 1 1
3 3 3 4 3 4 4 4 6 8 9 7 6 5 5 4 4 4 2 1 2 4 5 6 5 4 5 6 6 6 5 5 6 4 1 1 1 1 1 1 2 1 2
Wind_Direction
191 159 161 152 144 144 147 154 147 143 127 105 97 87 62 24 24 22 29 46 59 66 76 74 61 60 71 72 73 74 61 43 28 63 39 21 30 40 33 28 30 28 26
172 165 162 159 163 161 161 163 160 154 143 125 116 113 111 73 38 8 23 29 49 60 78 80 76 69 75 66 60 71 78 41 29 81 78 30 9 11 20 22 32 27 25
186 180 175 177 174 173 173 170 167 157 145 129 108 84 63 43 30 15 8 4 34 57 70 78 81 74 78 80 64 68 90 85 35 47 110 115 123 344 357 19 26 23 29
189 182 182 184 186 184 172 163 159 154 150 143 136 133 129 122 119 341 5 12 33 50 62 73 78 77 76 80 68 68 77 102 79 44 48 91 138 118 21 359 9 22 29
192 188 187 188 186 177 166 162 153 154 153 150 146 137 130 129 96 55 53 31 26 36 51 64 74 76 73 76 72 70 70 80 99 91 76 66 57 70 112 38 348 4 7
191 187 180 174 170 164 158 156 154 154 150 148 146 145 143 137 121 100 78 39 24 25 38 59 66 70 72 74 78 78 78 78 84 82 80 99 99 91 104 114 15 355 339
182 179 175 174 172 170 166 161 158 155 151 148 149 152 152 150 151 152 141 113 55 27 22 51 64 67 72 76 81 80 73 73 81 80 75 74 81 119 120 117 105 24 338
182 186 184 180 178 175 168 164 164 160 158 156 157 152 152 149 152 153 149 143 126 102 70 73 73 74 77 80 81 78 72 71 73 69 70 67 47 64 109 135 134 77 5
184 187 184 179 177 175 174 172 167 162 165 165 157 149 149 151 153 150 137 128 119 107 89 84 81 75 76 79 83 77 69 72 66 65 66 63 40 46 51 87 126 134 96
185 184 182 179 178 176 172 169 164 167 167 163 163 157 153 155 152 140 135 129 116 101 101 89 87 83 78 80 82 78 70 74 58 63 69 58 41 46 48 61 64 97 131
188 185 181 175 169 165 166 168 166 161 162 161 158 150 153 152 143 141 145 137 122 116 112 106 98 93 87 86 88 82 78 78 64 55 68 56 48 52 43 52 58 59 87
183 176 170 162 164 166 169 172 169 168 168 162 156 155 151 145 144 146 145 137 127 119 117 112 105 102 97 94 99 97 86 87 77 61 64 51 57 55 46 56 59 59 66
172 163 162 168 173 173 174 174 172 171 165 156 153 150 151 151 150 147 141 136 130 121 114 116 118 116 111 107 105 105 99 92 85 77 78 61 71 60 52 60 63 58 60
174 171 173 177 176 177 176 174 173 167 162 157 155 156 161 158 152 144 139 136 133 129 128 126 124 120 115 115 111 105 101 93 77 70 77 75 90 105 94 77 75 78 71
180 181 181 181 176 175 174 174 170 165 163 160 161 164 155 145 139 136 135 132 129 129 130 123 116 114 121 130 124 115 108 101 80 56 49 59 74 86 93 98 108 97 84
192 189 185 181 179 179 178 173 172 168 164 166 168 158 149 145 144 143 138 131 123 119 120 127 128 125 128 134 131 122 111 104 97 78 46 45 48 60 63 76 91 102 107
195 189 189 187 187 185 180 179 174 164 163 166 162 157 154 150 152 148 141 141 138 130 127 130 127 125 133 135 130 124 115 107 101 95 76 61 54 48 56 61 60 54 58
197 195 190 187 183 178 174 165 156 160 162 164 164 160 157 155 151 147 150 147 139 137 138 139 139 132 139 137 131 123 108 99 87 83 96 97 58 62 81 81 63 43 27
198 192 186 179 169 169 165 154 155 157 161 169 171 169 164 159 157 159 158 152 141 136 137 141 142 140 148 146 141 127 114 100 75 56 76 106 96 78 86 92 81 39 7
170 161 150 144 157 166 157 154 159 164 176 180 175 168 164 163 165 165 158 149 145 143 138 131 143 150 161 157 148 138 129 121 101 39 17 60 113 102 93 104 112 85 324
140 141 141 149 163 160 156 161 165 181 182 165 157 157 160 162 160 152 148 144 139 132 132 132 137 163 184 170 161 155 145 156 153 154 308 300 140 109 100 105 142 183 172
112 130 136 142 146 156 159 166 180 177 152 148 151 155 154 155 150 143 143 144 142 140 143 142 150 208 212 181 181 176 172 164 157 187 223 235 143 109 91 92 102 80 63
130 131 134 132 135 156 166 173 174 151 144 143 148 150 149 147 148 150 150 147 148 152 163 165 177 209 233 215 195 187 180 173 168 192 188 163 117 93 57 52 60 52 67
128 129 128 133 144 159 160 163 153 150 146 147 149 148 148 145 146 151 156 157 164 168 173 178 185 196 208 212 191 175 171 169 166 159 124 93 79 73 56 30 17 15 164
120 135 147 151 158 150 143 144 148 145 145 147 148 150 150 152 152 157 170 175 185 182 180 188 182 181 204 217 192 172 180 183 179 142 88 59 42 20 353 348 336 326 333
115 122 129 140 147 143 140 142 151 149 146 146 151 153 152 153 153 150 129 143 177 189 188 183 177 197 202 188 186 189 191 184 163 131 139 195 216 234 249 265 283 277 268